COSMOS 2251 DEB, 37973

Orbit data source: Space-Track

COSMOS 2251 DEB, 37973 is space debris in LEO originally from a launch on Wed, 16 Jun 1993 UTC launched from the Plesetsk Missile And Space Complex (PKMTR). The debris from Iridium 33, an American commercial communications satellite, has been tracked extensively since its accidental collision with the defunct Russian satellite Cosmos 2251 in 2009. This event, occurring at high speed in low Earth orbit (LEO), generated thousands of pieces of space debris, significantly increasing the risk of further collisions. The Iridium 33 debris cloud has impacted space traffic management and orbital debris mitigation strategies, making it a subject of ongoing study in space situational awareness.

Loading next visibility...
Identifier
37973, 1993-036BPY
Orbit
LEO
Country
Flag of CISCIS
Related business
Manufacturer
Unknown
Mission
Spacecraft
Bus & Motor
Unknown
Mass
Unknown
Launch date (UTC)
1993-06-16 (33 years ago)
Launch vehicle
Unknown
Launch site
Plesetsk Missile And Space Complex (PKMTR)
Object type
Payload
Rocket body
Debris
Shape & HBR
Unknown shape, 0.1 m
Radar Cross Section
Medium (>0.1 m² and <1 m²)

Expand to show TLE details & history
Last TLE update: 1 week ago

TLE from 1 week ago
0 COSMOS 2251 DEB
1 37973U 93036BPY 26244.48986909  .00000930  00000-0  28484-3 0  9992
2 37973  74.0324 176.1029 0037825 192.3441 167.6793 14.42730512687779
Epoch: 2026-09-01T11:45Z
TLE epoch observation values (Epoch: 2026-09-01T11:45:24.689Z)
Latitude
-0.00002°
Longitude
19.09401°
Altitude
778.459 km
Speed
7.451 km/s
True Right ascension
11h 44m 24s
True Declination
0° 00' 00"
Sunlit
Object was in daylight at epoch
Visualization orbit readout
Latitude
Unknown
Longitude
Unknown
Altitude
Unknown
Speed
Unknown
Apparent Right ascension
Unknown
Apparent Declination
Unknown
Sunlit
N/A
Visualization observer readout
Local Sidereal Time
05:24:05
Azimuth
Unknown
Elevation
Unknown
Doppler factor
Unknown
Orbital elements
Apogee altitude
774.059 km
Perigee altitude
720.157 km
Semi-major axis
7,125.245 km
Eccentricity
0.00378
Inclination
74.0324°
RAAN
176.1029°
Arg. of periapsis
192.3441°
True anomaly
167.77136°
Mean anomaly
167.6793°
Eccentric anomaly
167.72537°
Mean motion
3.60864 °/min
Orbital period
99.76 mins
BSTAR
0.00028484
Loading maneuver chart data...
Computing Atmospheric mass density...

Documentation

Showing up to 5 results
|